Location: Meylan - GAD - Ancien Couvent des Capucins
(45.2229°N, 5.7790°E)
Time: 04:39:46
(UTC+01:00)

ISS - Visible Passes

Search period start: 16 November 2018 00:00
Search period end: 26 November 2018 00:00
Orbit: 402 x 408 km, 51.6° (Epoch: 16 November)

Date Brightness Start Highest point End Pass type
(mag) Time Alt. Az. Time Alt. Az. Time Alt. Az.
16 Nov -1.1 05:38:43 11° S 05:38:43 11° S 05:38:59 10° S visible
23 Nov -1.2 19:22:58 10° SSW 19:23:45 16° SSW 19:23:45 16° SSW visible
24 Nov -2.3 18:31:25 10° S 18:34:00 22° SE 18:34:00 22° SE visible
25 Nov -1.5 17:40:33 10° SSE 17:42:03 13° SE 17:43:33 10° ESE visible
25 Nov -2.3 19:14:48 10° WSW 19:16:50 35° SW 19:16:50 35° SW visible
